Time,TemperatureF,DewpointF,PressureIn,WindDirection,WindDirectionDegrees,WindSpeedMPH,WindSpeedGustMPH,Humidity,HourlyPrecipIn,Conditions,Clouds,dailyrainin,SolarRadiationWatts/m^2,SoftwareType,DateUTC
2013-04-22 05:57:00,53.0,47.3,29.95,East,100,3.0,3.0,81,0.00,,---,0.00,0.00,VWS V14.01,2013-04-22 10:57:00,
2013-04-22 05:58:00,52.9,47.2,29.95,East,100,5.0,5.0,81,0.00,,---,0.00,0.00,VWS V14.01,2013-04-22 10:58:00,
2013-04-22 06:03:00,52.9,47.2,29.95,East,100,3.0,7.0,81,0.00,,---,0.00,0.00,VWS V14.01,2013-04-22 11:03:00,
2013-04-22 06:08:00,52.8,47.1,29.95,East,100,3.0,7.0,81,0.00,,---,0.00,0.00,VWS V14.01,2013-04-22 11:08:00,
2013-04-22 06:13:00,52.7,47.0,29.95,East,100,3.0,7.0,81,0.00,,---,0.00,0.00,VWS V14.01,2013-04-22 11:13:00,
2013-04-22 06:21:00,52.6,47.3,29.95,East,100,3.0,3.0,82,0.00,,---,0.00,0.00,VWS V14.01,2013-04-22 11:21:00,
2013-04-22 16:39:00,84.8,56.4,29.69,SE,134,7.0,7.0,38,0.00,,---,0.00,691.00,VWS V14.01,2013-04-22 21:39:00,
2013-04-22 16:44:00,84.8,57.1,29.69,SSE,166,12.0,18.0,39,0.00,,---,0.00,687.00,VWS V14.01,2013-04-22 21:44:00,
2013-04-22 16:49:00,85.1,56.7,29.68,SSE,161,13.0,19.0,38,0.00,,---,0.00,668.00,VWS V14.01,2013-04-22 21:49:00,
2013-04-22 16:54:00,85.4,56.2,29.67,SSE,150,7.0,19.0,37,0.00,,---,0.00,652.00,VWS V14.01,2013-04-22 21:54:00,
2013-04-22 16:59:00,85.5,56.3,29.67,SE,142,5.0,19.0,37,0.00,,---,0.00,631.00,VWS V14.01,2013-04-22 21:59:00,
2013-04-22 17:04:00,85.5,56.3,29.67,SSE,150,12.0,19.0,37,0.00,,---,0.00,615.00,VWS V14.01,2013-04-22 22:04:00,
2013-04-22 17:09:00,85.3,55.3,29.66,SE,139,10.0,21.0,36,0.00,,---,0.00,596.00,VWS V14.01,2013-04-22 22:09:00,
2013-04-22 17:14:00,85.6,54.8,29.66,SE,144,8.0,22.0,35,0.00,,---,0.00,580.00,VWS V14.01,2013-04-22 22:14:00,
2013-04-22 17:19:00,85.7,55.7,29.66,ESE,122,10.0,22.0,36,0.00,,---,0.00,564.00,VWS V14.01,2013-04-22 22:19:00,
2013-04-22 17:24:00,85.7,55.7,29.65,SSE,159,9.0,22.0,36,0.00,,---,0.00,543.00,VWS V14.01,2013-04-22 22:24:00,
2013-04-22 17:29:00,85.9,55.9,29.65,SE,130,12.0,22.0,36,0.00,,---,0.00,524.00,VWS V14.01,2013-04-22 22:29:00,
2013-04-22 17:34:00,85.9,55.9,29.65,SE,138,20.0,22.0,36,0.00,,---,0.00,506.00,VWS V14.01,2013-04-22 22:34:00,
2013-04-22 17:39:00,85.9,55.9,29.64,SSE,153,12.0,22.0,36,0.00,,---,0.00,490.00,VWS V14.01,2013-04-22 22:39:00,
2013-04-22 17:44:00,85.8,56.5,29.64,SSE,147,11.0,22.0,37,0.00,,---,0.00,473.00,VWS V14.01,2013-04-22 22:44:00,
2013-04-22 17:49:00,85.9,56.6,29.64,SE,143,10.0,22.0,37,0.00,,---,0.00,454.00,VWS V14.01,2013-04-22 22:49:00,
2013-04-22 17:54:00,85.9,56.6,29.64,SE,136,10.0,22.0,37,0.00,,---,0.00,434.00,VWS V14.01,2013-04-22 22:54:00,
2013-04-22 17:59:00,85.9,55.9,29.63,SE,139,7.0,28.0,36,0.00,,---,0.00,415.00,VWS V14.01,2013-04-22 22:59:00,
2013-04-22 18:04:00,85.7,57.2,29.63,SE,127,14.0,14.0,38,0.00,,---,0.00,397.00,VWS V14.01,2013-04-22 23:04:00,
2013-04-22 18:09:00,85.5,57.7,29.63,SE,142,6.0,17.0,39,0.00,,---,0.00,378.00,VWS V14.01,2013-04-22 23:09:00,
2013-04-22 18:14:00,85.1,58.8,29.63,ESE,115,12.0,17.0,41,0.00,,---,0.00,360.00,VWS V14.01,2013-04-22 23:14:00,
2013-04-22 18:19:00,85.1,56.7,29.62,SE,130,6.0,20.0,38,0.00,,---,0.00,343.00,VWS V14.01,2013-04-22 23:19:00,
2013-04-22 18:24:00,85.0,58.0,29.62,ESE,119,13.0,20.0,40,0.00,,---,0.00,322.00,VWS V14.01,2013-04-22 23:24:00,
2013-04-22 18:29:00,84.7,57.7,29.62,ESE,118,7.0,20.0,40,0.00,,---,0.00,304.00,VWS V14.01,2013-04-22 23:29:00,
2013-04-22 18:34:00,84.4,58.8,29.62,ESE,119,5.0,17.0,42,0.00,,---,0.00,285.00,VWS V14.01,2013-04-22 23:34:00,
2013-04-22 18:39:00,83.3,59.1,29.61,East,99,9.0,17.0,44,0.00,,---,0.00,265.00,VWS V14.01,2013-04-22 23:39:00,
2013-04-22 18:44:00,82.8,59.3,29.61,SE,136,9.0,17.0,45,0.00,,---,0.00,246.00,VWS V14.01,2013-04-22 23:44:00,
2013-04-22 18:49:00,82.8,59.9,29.61,SE,126,10.0,17.0,46,0.00,,---,0.00,227.00,VWS V14.01,2013-04-22 23:49:00,
2013-04-22 18:54:00,82.5,59.7,29.61,SE,132,8.0,17.0,46,0.00,,---,0.00,209.00,VWS V14.01,2013-04-22 23:54:00,
2013-04-22 18:59:00,82.1,59.9,29.61,ESE,119,4.0,17.0,47,0.00,,---,0.00,190.00,VWS V14.01,2013-04-22 23:59:00,
2013-04-22 19:04:00,81.8,59.6,29.61,SE,127,9.0,13.0,47,0.00,,---,0.00,169.00,VWS V14.01,2013-04-23 00:04:00,
2013-04-22 19:09:00,81.7,58.9,29.61,SE,130,5.0,18.0,46,0.00,,---,0.00,148.00,VWS V14.01,2013-04-23 00:09:00,
2013-04-22 19:14:00,81.4,59.3,29.61,ESE,109,4.0,18.0,47,0.00,,---,0.00,130.00,VWS V14.01,2013-04-23 00:14:00,
2013-04-22 19:19:00,81.0,58.9,29.61,SE,128,9.0,21.0,47,0.00,,---,0.00,111.00,VWS V14.01,2013-04-23 00:19:00,
2013-04-22 19:24:00,80.6,58.5,29.61,SE,126,10.0,21.0,47,0.00,,---,0.00,93.00,VWS V14.01,2013-04-23 00:24:00,
2013-04-22 19:29:00,80.4,58.9,29.61,SE,126,4.0,21.0,48,0.00,,---,0.00,79.00,VWS V14.01,2013-04-23 00:29:00,
2013-04-22 19:34:00,80.0,58.6,29.61,SE,130,4.0,16.0,48,0.00,,---,0.00,63.00,VWS V14.01,2013-04-23 00:34:00,
2013-04-22 19:39:00,79.6,58.2,29.61,SE,126,7.0,16.0,48,0.00,,---,0.00,49.00,VWS V14.01,2013-04-23 00:39:00,
2013-04-22 19:44:00,79.3,58.5,29.61,ESE,119,4.0,16.0,49,0.00,,---,0.00,33.00,VWS V14.01,2013-04-23 00:44:00,
2013-04-22 19:49:00,78.9,58.1,29.61,ESE,121,8.0,17.0,49,0.00,,---,0.00,23.00,VWS V14.01,2013-04-23 00:49:00,
2013-04-22 19:54:00,78.6,57.9,29.61,ESE,107,8.0,17.0,49,0.00,,---,0.00,18.00,VWS V14.01,2013-04-23 00:54:00,
2013-04-22 19:59:00,78.4,57.7,29.60,SE,129,5.0,18.0,49,0.00,,---,0.00,14.00,VWS V14.01,2013-04-23 00:59:00,
2013-04-22 20:04:00,78.2,58.1,29.60,ESE,121,7.0,18.0,50,0.00,,---,0.00,11.00,VWS V14.01,2013-04-23 01:04:00,
2013-04-22 20:09:00,77.9,57.8,29.61,ESE,121,4.0,18.0,50,0.00,,---,0.00,7.00,VWS V14.01,2013-04-23 01:09:00,
2013-04-22 20:14:00,77.6,57.5,29.61,SE,125,6.0,18.0,50,0.00,,---,0.00,0.00,VWS V14.01,2013-04-23 01:14:00,
2013-04-22 20:19:00,77.2,57.7,29.60,SE,126,6.0,18.0,51,0.00,,---,0.00,0.00,VWS V14.01,2013-04-23 01:19:00,
2013-04-22 20:24:00,77.1,57.6,29.61,SE,131,12.0,18.0,51,0.00,,---,0.00,0.00,VWS V14.01,2013-04-23 01:24:00,
2013-04-22 20:29:00,76.8,57.3,29.61,SE,137,9.0,20.0,51,0.00,,---,0.00,0.00,VWS V14.01,2013-04-23 01:29:00,
2013-04-22 20:34:00,76.6,57.7,29.60,SE,134,9.0,20.0,52,0.00,,---,0.00,0.00,VWS V14.01,2013-04-23 01:34:00,
2013-04-22 20:39:00,76.6,57.1,29.61,SE,137,10.0,27.0,51,0.00,,---,0.00,0.00,VWS V14.01,2013-04-23 01:39:00,
2013-04-22 20:44:00,76.3,57.4,29.60,SSE,150,8.0,27.0,52,0.00,,---,0.00,0.00,VWS V14.01,2013-04-23 01:44:00,
2013-04-22 20:49:00,76.0,57.1,29.60,SE,134,8.0,27.0,52,0.00,,---,0.00,0.00,VWS V14.01,2013-04-23 01:49:00,
2013-04-22 20:54:00,75.8,57.5,29.60,SE,144,8.0,27.0,53,0.00,,---,0.00,0.00,VWS V14.01,2013-04-23 01:54:00,
2013-04-22 20:59:00,75.7,57.4,29.60,SE,129,12.0,27.0,53,0.00,,---,0.00,0.00,VWS V14.01,2013-04-23 01:59:00,
2013-04-22 21:04:00,75.7,57.4,29.60,SSE,147,15.0,21.0,53,0.00,,---,0.00,0.00,VWS V14.01,2013-04-23 02:04:00,
2013-04-22 21:09:00,75.6,56.8,29.60,SE,133,9.0,21.0,52,0.00,,---,0.00,0.00,VWS V14.01,2013-04-23 02:09:00,
2013-04-22 21:14:00,75.6,56.8,29.60,SE,144,10.0,22.0,52,0.00,,---,0.00,0.00,VWS V14.01,2013-04-23 02:14:00,
2013-04-22 21:19:00,75.5,56.7,29.61,SE,137,8.0,23.0,52,0.00,,---,0.00,0.00,VWS V14.01,2013-04-23 02:19:00,
2013-04-22 21:24:00,75.3,57.0,29.60,SE,138,12.0,23.0,53,0.00,,---,0.00,0.00,VWS V14.01,2013-04-23 02:24:00,
2013-04-22 21:29:00,75.2,56.9,29.60,SE,132,10.0,23.0,53,0.00,,---,0.00,0.00,VWS V14.01,2013-04-23 02:29:00,
2013-04-22 21:34:00,75.1,56.8,29.61,SE,132,8.0,20.0,53,0.00,,---,0.00,0.00,VWS V14.01,2013-04-23 02:34:00,
2013-04-22 21:39:00,75.0,56.7,29.61,SE,137,9.0,20.0,53,0.00,,---,0.00,0.00,VWS V14.01,2013-04-23 02:39:00,
2013-04-22 21:44:00,74.8,57.1,29.61,SE,140,7.0,21.0,54,0.00,,---,0.00,0.00,VWS V14.01,2013-04-23 02:44:00,
2013-04-22 21:49:00,74.5,56.8,29.62,SE,134,6.0,21.0,54,0.00,,---,0.00,0.00,VWS V14.01,2013-04-23 02:49:00,
2013-04-22 21:54:00,74.3,56.6,29.62,SE,146,15.0,21.0,54,0.00,,---,0.00,0.00,VWS V14.01,2013-04-23 02:54:00,
2013-04-22 21:59:00,74.2,56.5,29.62,SE,141,9.0,21.0,54,0.00,,---,0.00,0.00,VWS V14.01,2013-04-23 02:59:00,
2013-04-22 22:04:00,74.0,56.8,29.62,SE,134,9.0,16.0,55,0.00,,---,0.00,0.00,VWS V14.01,2013-04-23 03:04:00,
2013-04-22 22:09:00,74.0,56.8,29.63,SE,146,3.0,17.0,55,0.00,,---,0.00,0.00,VWS V14.01,2013-04-23 03:09:00,
2013-04-22 22:14:00,73.9,56.7,29.63,SE,130,2.0,17.0,55,0.00,,---,0.00,0.00,VWS V14.01,2013-04-23 03:14:00,
2013-04-22 22:19:00,73.8,56.6,29.63,SE,137,5.0,17.0,55,0.00,,---,0.00,0.00,VWS V14.01,2013-04-23 03:19:00,
2013-04-22 22:24:00,73.5,56.4,29.63,SE,133,5.0,17.0,55,0.00,,---,0.00,0.00,VWS V14.01,2013-04-23 03:24:00,
2013-04-22 22:29:00,73.1,56.5,29.63,ESE,113,7.0,17.0,56,0.00,,---,0.00,0.00,VWS V14.01,2013-04-23 03:29:00,
2013-04-22 22:34:00,72.9,56.8,29.63,SE,133,7.0,14.0,57,0.00,,---,0.00,0.00,VWS V14.01,2013-04-23 03:34:00,
2013-04-22 22:39:00,72.8,56.7,29.63,SSE,148,11.0,14.0,57,0.00,,---,0.00,0.00,VWS V14.01,2013-04-23 03:39:00,
2013-04-22 22:44:00,72.6,56.5,29.63,SE,124,4.0,14.0,57,0.00,,---,0.00,0.00,VWS V14.01,2013-04-23 03:44:00,
2013-04-22 22:49:00,72.5,56.4,29.63,SE,126,5.0,14.0,57,0.00,,---,0.00,0.00,VWS V14.01,2013-04-23 03:49:00,
2013-04-22 22:54:00,72.3,56.7,29.63,ESE,113,3.0,14.0,58,0.00,,---,0.00,0.00,VWS V14.01,2013-04-23 03:54:00,
2013-04-22 22:59:00,72.2,56.6,29.63,ESE,121,7.0,14.0,58,0.00,,---,0.00,0.00,VWS V14.01,2013-04-23 03:59:00,
2013-04-22 23:01:00,72.2,56.6,29.63,SE,125,5.0,14.0,58,0.00,,---,0.00,0.00,VWS V14.01,2013-04-23 04:01:00,
2013-04-22 23:06:00,72.1,56.5,29.63,ESE,123,3.0,12.0,58,0.00,,---,0.00,0.00,VWS V14.01,2013-04-23 04:06:00,
2013-04-22 23:11:00,72.2,56.1,29.63,SE,136,4.0,14.0,57,0.00,,---,0.00,0.00,VWS V14.01,2013-04-23 04:11:00,
2013-04-22 23:16:00,72.3,56.2,29.63,SE,133,5.0,14.0,57,0.00,,---,0.00,0.00,VWS V14.01,2013-04-23 04:16:00,
2013-04-22 23:21:00,72.3,56.2,29.63,SE,124,5.0,14.0,57,0.00,,---,0.00,0.00,VWS V14.01,2013-04-23 04:21:00,
2013-04-22 23:26:00,72.3,56.2,29.63,SE,125,12.0,14.0,57,0.00,,---,0.00,0.00,VWS V14.01,2013-04-23 04:26:00,
2013-04-22 23:31:00,72.3,56.2,29.63,SE,142,6.0,15.0,57,0.00,,---,0.00,0.00,VWS V14.01,2013-04-23 04:31:00,
2013-04-22 23:36:00,72.4,55.8,29.63,SSE,148,7.0,14.0,56,0.00,,---,0.00,0.00,VWS V14.01,2013-04-23 04:36:00,
2013-04-22 23:41:00,72.4,55.8,29.63,SE,133,11.0,18.0,56,0.00,,---,0.00,0.00,VWS V14.01,2013-04-23 04:41:00,
2013-04-22 23:46:00,72.6,56.0,29.63,SE,134,6.0,18.0,56,0.00,,---,0.00,0.00,VWS V14.01,2013-04-23 04:46:00,
2013-04-22 23:51:00,72.6,56.0,29.63,SE,142,9.0,18.0,56,0.00,,---,0.00,0.00,VWS V14.01,2013-04-23 04:51:00,
2013-04-22 23:56:00,72.4,55.8,29.63,SE,141,10.0,18.0,56,0.00,,---,0.00,0.00,VWS V14.01,2013-04-23 04:56:00,